Louisville, KY

8:14 AM EST on February 25, 2017 (GMT -0500)
Bowman

Weather History for KLOU - December, 2008

Change the Weather History Date:

Sunday, December 28, 2008

  Actual Average Record
Temperature  
Mean Temperature 49 °F 35 °F  
Max Temperature 64 °F 43 °F 69 °F (1996)
Min Temperature 33 °F 27 °F 4 °F (1961)
Degree Days  
Heating Degree Days 16 30  
Month to date heating degree days 772  
Since 1 July heating degree days 1576  
Cooling Degree Days 0 0  
Month to date cooling degree days 0  
Year to date cooling degree days 1444  
Moisture  
Dew Point 37 °F    
Average Humidity 70    
Maximum Humidity 93    
Minimum Humidity 44    
Precipitation  
Precipitation 0.46 in 0.13 in 1.28 in (1988)
Month to date precipitation 3.66  
Year to date precipitation 45.19  
Sea Level Pressure  
Sea Level Pressure 30.07 in    
Wind  
Wind Speed 12 mph (WSW)    
Max Wind Speed 26 mph    
Max Gust Speed 44 mph    
Visibility 8 miles    
Events Rain    
T = Trace of Precipitation, MM = Missing Value Source: NWS Daily Summary

Daily Weather History Graph

Daily Weather History Graph

Search for Another Location

Airport or City:

Trip Planner

Search our weather history database for the weather conditions in past years. The results will help you decide how hot, cold, wet, or windy it might be!

Date:

Astronomy

Dec. 28, 2008 Rise Set
Actual Time 7:58 AM EST 5:30 PM EST
Civil Twilight 7:29 AM EST 6:00 PM EST
Nautical Twilight 6:55 AM EST 6:33 PM EST
Astronomical Twilight 6:23 AM EST 7:05 PM EST
Moon 8:57 AM EST (12/28) 6:35 PM EST (12/28)
Length of Visible Light 10h 31m
Length of Day
9h 31m
New Moon, 1% of the Moon is Illuminated
Dec 28
New Moon
Jan 4
First Quarter
Jan 10
Full
Jan 17
Last Quarter
Jan 26
New

Hourly Weather History & Observations

Time (EST) Temp. Windchill Dew Point Humidity Pressure Visibility Wind Dir Wind Speed Gust Speed Precip Events Conditions
12:14 AM 64.4 °F - 55.4 °F 73% 29.83 in 2.5 mi WSW 15.0 mph 32.2 mph 0.08 in Rain Heavy Rain
12:22 AM 60.8 °F - 57.2 °F 88% 29.82 in 1.8 mi SW 6.9 mph 18.4 mph 0.13 in Rain Heavy Rain
12:26 AM 60.8 °F - 57.2 °F 88% 29.81 in 3.0 mi Variable 5.8 mph - 0.14 in Rain Rain
12:53 AM 61.0 °F - 57.9 °F 90% 29.79 in 6.0 mi SSE 10.4 mph 17.3 mph 0.18 in Rain Light Rain
1:43 AM 60.8 °F - 57.2 °F 88% 29.80 in 2.5 mi SSW 11.5 mph 17.3 mph 0.11 in Rain Heavy Rain
1:50 AM 60.8 °F - 57.2 °F 88% 29.82 in 1.5 mi West 17.3 mph 26.5 mph 0.20 in Rain Heavy Rain
1:53 AM 59.0 °F - 57.0 °F 93% 29.81 in 1.2 mi West 26.5 mph 39.1 mph 0.24 in Rain Heavy Rain
2:01 AM 57.2 °F - 53.6 °F 88% 29.84 in 3.0 mi WSW 21.9 mph 43.7 mph 0.03 in Rain Rain
2:06 AM 57.2 °F - 51.8 °F 82% 29.84 in 7.0 mi WSW 17.3 mph 36.8 mph 0.03 in Rain Light Rain
2:53 AM 55.0 °F - 50.0 °F 83% 29.86 in 10.0 mi SW 13.8 mph 25.3 mph 0.04 in Rain Light Rain
3:42 AM 53.6 °F - 48.2 °F 82% 29.91 in 10.0 mi West 20.7 mph 27.6 mph 0.00 in   Overcast
3:53 AM 50.0 °F - 45.0 °F 83% 29.94 in 10.0 mi West 25.3 mph 32.2 mph 0.00 in   Overcast
4:53 AM 45.0 °F 38.5 °F 37.0 °F 74% 30.02 in 10.0 mi West 13.8 mph - N/A   Overcast
5:51 AM 41.0 °F 32.8 °F 32.0 °F 70% 30.07 in 10.0 mi West 16.1 mph 25.3 mph N/A   Scattered Clouds
5:53 AM 41.0 °F 33.5 °F 32.0 °F 70% 30.08 in 10.0 mi West 13.8 mph 25.3 mph N/A   Scattered Clouds
6:53 AM 39.0 °F 33.4 °F 30.9 °F 73% 30.12 in 10.0 mi WSW 8.1 mph - N/A   Clear
7:53 AM 37.0 °F 28.5 °F 28.9 °F 73% 30.16 in 10.0 mi WSW 13.8 mph - N/A   Clear
8:53 AM 37.0 °F 31.0 °F 30.0 °F 76% 30.20 in 10.0 mi SW 8.1 mph - N/A   Clear
9:53 AM 39.0 °F 31.8 °F 28.9 °F 67% 30.23 in 10.0 mi West 11.5 mph - N/A   Clear
10:53 AM 41.0 °F 34.3 °F 27.0 °F 57% 30.26 in 10.0 mi West 11.5 mph - N/A   Clear
11:53 AM 43.0 °F 39.5 °F 27.0 °F 53% 30.26 in 10.0 mi West 5.8 mph 17.3 mph N/A   Clear
12:53 PM 44.1 °F 39.0 °F 28.0 °F 53% 30.25 in 10.0 mi West 9.2 mph - N/A   Clear
1:53 PM 45.0 °F 41.8 °F 26.1 °F 48% 30.22 in 10.0 mi West 5.8 mph 16.1 mph N/A   Clear
2:53 PM 46.0 °F 43.1 °F 26.1 °F 46% 30.22 in 10.0 mi West 5.8 mph - N/A   Clear
3:53 PM 46.0 °F 42.5 °F 25.0 °F 44% 30.23 in 10.0 mi WSW 6.9 mph - N/A   Clear
4:53 PM 45.0 °F 41.8 °F 24.1 °F 44% 30.25 in 10.0 mi SW 5.8 mph - N/A   Clear
5:53 PM 43.0 °F 41.3 °F 25.0 °F 49% 30.24 in 10.0 mi WSW 3.5 mph - N/A   Clear
6:53 PM 42.1 °F 40.2 °F 26.1 °F 53% 30.25 in 10.0 mi WSW 3.5 mph - N/A   Clear
7:53 PM 41.0 °F - 25.0 °F 53% 30.25 in 10.0 mi Calm Calm - N/A   Clear
8:53 PM 37.9 °F - 26.1 °F 62% 30.26 in 10.0 mi Calm Calm - N/A   Clear
9:53 PM 36.0 °F - 27.0 °F 70% 30.25 in 10.0 mi Calm Calm - N/A   Clear
10:53 PM 34.0 °F - 28.0 °F 79% 30.25 in 10.0 mi Calm Calm - N/A   Clear
11:53 PM 33.1 °F - 27.0 °F 78% 30.26 in 10.0 mi Calm Calm - N/A   Clear